Location: ??????????
(54.8537°N, 38.8755°E)
Time: 21:28:31
(UTC+00:00)

Vanguard 2 Rocket - Pass Details

Date: 13 September 2024
Orbit: 553 x 3298 km, 32.9° (Epoch: 09 October)

Event Time Altitude Azimuth Distance (km) Brightness Sun altitude
Rises 02:40:24 0° 252° (WSW) 5,873 - -2.7°
Exits shadow 02:41:16 - 251° (WSW) 5,720 10.3 -2.6°
Reaches altitude 10° 02:44:26 10° 244° (WSW) 5,213 10.2 -2.2°
Maximum altitude 02:57:54 32° 189° (S) 4,411 10.3 -0.3°
Drops below altitude 10° 03:14:01 10° 136° (SE) 6,216 11.8 2.1°
Sets 03:19:28 0° 128° (SE) 7,113 12.3 2.8°
